STARLINK-32364

Last updated on Thu Nov 21 2024 00:02:04 GMT+0000 (Coordinated Universal Time)

1 61622U 24191B 24325.45360038 .00001243 00000+0 27005-4 0 9996 2 61622 43.0017 330.4413 0001577 289.8470 70.2220 15.50577600 4801
UTC large
Height (km)
Speed (km/s)
/
Latitude / Longitude
Inclination (degrees)
Orbital Period (minutes)
Azimuth
Elevation
Range (km)
Doppler Factor

Next 0 passes for location: London (51.5072 / 0.1276)

Sorry there are no passes over London.